Regional Weather Roundup
Issued by NWS

Home | Current Version | Previous Version | Graphics & Text | Print | Product List | Glossary On
Versions: 1 2 3 4 5 6 7 8 9 10 11 12 13 14 15 16 17 18 19 20 21 22 23 24 25 26 27 28 29 30 31 32 33 34 35 36 37 38 39 40 41 42 43 44 45 46 47 48 49 50
000
ASUS43 KLOT 110008
RWRIL

ILLINOIS REGIONAL WEATHER ROUNDUP
NATIONAL WEATHER SERVICE CHICAGO/ROMEOVILLE IL
600 PM CST WED FEB 10 2016

NOTE: "FAIR" INDICATES FEW OR NO CLOUDS BELOW 12,000 FEET WITH NO
SIGNIFICANT WEATHER AND/OR OBSTRUCTIONS TO VISIBILITY.

* THESE STATIONS ARE NOT UNDER NWS QUALITY CONTROL. THEY ALSO MAY NOT
  REPORT WEATHER SUCH AS PRECIPITATION OR FOG.

ILZ001-002-007-009-015-016-024-110100-
NORTHWEST ILLINOIS

CITY           SKY/WX    TMP DP  RH WIND       PRES   REMARKS
MOLINE         MOCLDY    18   2  49 NW9       30.12R WCI   7
6HR MIN TEMP:  16; 6HR MAX TEMP:  19;

STERLING*      CLEAR     16   1  53 N7        30.08R WCI   6
SAVANNA*       CLEAR     15   1  54 N3        30.12R
$$

ILZ003-004-008-010-011-017-018-110100-
NORTH CENTRAL ILLINOIS

CITY           SKY/WX    TMP DP  RH WIND       PRES   REMARKS
ROCKFORD       PTCLDY    13   1  59 NW9       30.12R WCI   1
6HR MIN TEMP:  13; 6HR MAX TEMP:  18;

FREEPORT*      CLEAR     10   1  67 W6        30.11R WCI   1
ROCHELLE*      PTCLDY    14   4  67 NW7       30.10R WCI   3
DE KALB*       PTCLDY    14   4  63 NW7       30.09R WCI   4
$$

ILZ005-006-012>014-019>023-110100-
NORTHEAST ILLINOIS

CITY           SKY/WX    TMP DP  RH WIND       PRES   REMARKS
CHICAGO-OHARE  MOCLDY    14   1  56 N12       30.08R WCI   0
6HR MIN TEMP:  13; 6HR MAX TEMP:  18;

CHICAGO-MIDWAY PTCLDY    17   1  49 NW12      30.09R WCI   4
6HR MIN TEMP:  16; 6HR MAX TEMP:  19;

AURORA         PTCLDY    16   4  59 NW8       30.09R WCI   5
6HR MIN TEMP:  15; 6HR MAX TEMP:  18;

LANSING*       MOCLDY    17   2  53 NW7       30.09R WCI   7
JOLIET*        CLEAR     17   5  57 NW6       30.11R WCI   9
WAUKEGAN       PTCLDY    11   0  61 NW6       30.09R WCI   1
6HR MIN TEMP:  11; 6HR MAX TEMP:  15;

DUPAGE AIRPORT CLEAR     13   1  59 N8        30.08R WCI   2
6HR MIN TEMP:  13; 6HR MAX TEMP:  17;

KANKAKEE*      MOCLDY    17   7  63 N6        30.10R WCI   9
WHEELING       CLOUDY    14   1  56 N7        30.10R WCI   4
6HR MIN TEMP:  14; 6HR MAX TEMP:  17;

MORRIS*        CLEAR     16   7  66 CALM      30.08R
ROMEOVILLE*    CLOUDY    16   4  60 NW9       30.09R WCI   4
NORTHERLY ISL    N/A     17   2  51 NW8         N/A  WCI   7
$$

LMZ740>746-110100-
SOUTHERN LAKE MICHIGAN

STATION/POSITION SKY/WX   TEMP    WIND        PRES    VSBY  WAVE
                          AIR SEA DIR/SP/G                  HT/PER
                          (F)     (DEG/KT/KT) (MB)    (MI)  (FT/S)
HARRISON CRIB              17     330/ 13/ 15   N/A
BURNHAM HARBOR             17     330/  9/ 14   N/A
CALUMET HARBOR             17                 1017.4
BURNS HARBOR               18     320/ 11/ 19 1018.3R
MICHIGAN CITY              16     300/ 11/ 16   N/A
$$

ILZ025>027-034>036-040-047-049-050-058-095>099-110100-
WEST-CENTRAL ILLINOIS

CITY           SKY/WX    TMP DP  RH WIND       PRES   REMARKS
QUINCY         CLOUDY    19  15  84 SE6       30.11R WCI  11
GALESBURG*     PTCLDY    15   7  69 W6        30.11R WCI   6
MACOMB*        CLOUDY    19  14  80 W5        30.14R WCI  12
JACKSONVILLE*  CLOUDY    21  17  83 SW3       30.13S
PITTSFIELD*    CLOUDY    21  17  84 S3        30.13R
$$

ILZ028>032-037-038-041>044-048-051>054-059>061-110100-
CENTRAL ILLINOIS

CITY           SKY/WX    TMP DP  RH WIND       PRES   REMARKS
PONTIAC        PTCLDY    19   9  63 W6        30.11R WCI  11
BLOOMINGTON    MOCLDY    19   5  54 W8        30.10R WCI   9
DECATUR        CLOUDY    20   5  52 W6        30.12R WCI  12
PEORIA         CLOUDY    19   3  49 W5        30.12R WCI  12
6HR MIN TEMP:  17; 6HR MAX TEMP:  20;

LACON*         PTCLDY    18   3  52 W6        30.12R WCI  10
LINCOLN*       CLOUDY    20   9  61 W6        30.13R WCI  13
SPRINGFIELD    CLOUDY    20  15  81 W7        30.14R WCI  11
6HR MIN TEMP:  18; 6HR MAX TEMP:  21; 6HR PCP: TRACE;

TAYLORVILLE    FLURRIES  19  16  86 W6        30.14S WCI  11
$$

ILZ033-039-045-046-055>057-062-063-110100-
EAST-CENTRAL ILLINOIS

CITY           SKY/WX    TMP DP  RH WIND       PRES   REMARKS
CHAMPAIGN      CLOUDY    19   7  59 W13       30.10R WCI   6
RANTOUL*       CLOUDY    21  10  62 W7        30.10R WCI  12
MATTOON        CLOUDY    19   7  59 W9        30.11R WCI   8
PARIS*         CLOUDY    19  10  67 W10       30.13R WCI   7
$$

ILZ079-100>102-110100-
SOUTHWEST ILLINOIS

CITY           SKY/WX    TMP DP  RH WIND       PRES   REMARKS
ALTON          LGT SNOW  19  18  93 SW6       30.15  WCI  11
BELLEVILLE     FLURRIES  21  19  93 SW3       30.15S
CAHOKIA*       FLURRIES  22  18  85 SE3       30.16S
SPARTA*        LGT SNOW  21  19  91 CALM      30.17R
$$

ILZ064>066-069>071-074>076-080>082-084>086-088>090-092>094-110100-
SOUTH-CENTRAL ILLINOIS

CITY           SKY/WX    TMP DP  RH WIND       PRES   REMARKS
CARBONDALE     LGT SNOW  22  18  85 CALM      30.18R FOG
6HR MIN TEMP:  20; 6HR MAX TEMP:  24; 6HR PCP:  0.04;

CAIRO*         CLOUDY    24  22  93 CALM      30.18S
EFFINGHAM*     CLOUDY    20  16  83 SW9       30.16S WCI  10
MARION         CLOUDY    23  19  86 SW7       30.19R WCI  15
MT. VERNON     CLOUDY    19  12  73 SW5       30.17R WCI  13
CENTRALIA*     LGT SNOW  21  18  89 W3        30.16R
SALEM*         LGT SNOW  21  17  84 W5        30.16R WCI  15
METROPOLIS*    FLURRIES  24  22  93 CALM      30.20R
$$

ILZ067-068-072-073-078-083-087-091-110100-
SOUTHEAST ILLINOIS

CITY           SKY/WX    TMP DP  RH WIND       PRES   REMARKS
LAWRENCEVILLE  CLOUDY    22   9  57 W8        30.16R WCI  12
FLORA*         FLURRIES  22  18  85 W7        30.17S WCI  13
FAIRFIELD*     LGT SNOW  21  18  87 SW3       30.17R
HARRISBURG*    LGT SNOW  21  18  86 CALM      30.20R
ROBINSON*      CLOUDY    20   9  62 W7        30.16R WCI  11
CARMI*         LGT SNOW  21  19  91 SW6       30.18S WCI  13
$$

ABBREVIATIONS USED IN REMARKS
   TC - TEMPERATURE IN CELSIUS
  WCI - WIND CHILL INDEX
   HX - HEAT INDEX
  VSB - VISIBILITY
$$




USA.gov is the U.S. government's official web portal to all federal, state and local government web resources and services.